CES5531 ZSNJ-ZBAA

Flight info

Callsign CES5531
Flight time 1h 32m
Altitude 15700
Route OF A470 A593 DALIM W157 AVBOX
Aircraft B463/M-SDE1E2E3FGHIJ2J3J4J5M1RWXYZ/LB1D1

Departure

Time 2026-05-06 06:16
Airport Nanjing Lukou International Airport (ZSNJ)

Arrival

Time 2026-05-06 07:49
Airport Beijing Capital International Airport (ZBAA)
Time Latitude Longitude Altitude Speed Heading
2026-05-06 05:21 31.73062 118.86742 58 ft 0 kts 147°
2026-05-06 06:07 31.73064 118.86740 58 ft 3 kts 148°
2026-05-06 06:07 31.73085 118.86729 56 ft 3 kts 170°
2026-05-06 06:08 31.73108 118.86732 55 ft 3 kts 207°
2026-05-06 06:08 31.73121 118.86745 54 ft 0 kts 238°
2026-05-06 06:11 31.73120 118.86745 58 ft 1 kts 238°
2026-05-06 06:11 31.73113 118.86732 50 ft 4 kts 238°
2026-05-06 06:11 31.73086 118.86681 50 ft 10 kts 238°
2026-05-06 06:11 31.73039 118.86592 55 ft 15 kts 238°
2026-05-06 06:12 31.72982 118.86467 56 ft 19 kts 278°
2026-05-06 06:12 31.73098 118.86354 58 ft 24 kts 327°
2026-05-06 06:12 31.73255 118.86236 56 ft 29 kts 328°
2026-05-06 06:12 31.73440 118.86100 56 ft 33 kts 328°
2026-05-06 06:13 31.73646 118.85948 54 ft 36 kts 328°
2026-05-06 06:13 31.73782 118.85837 57 ft 13 kts 301°
2026-05-06 06:13 31.73753 118.85732 58 ft 15 kts 234°
2026-05-06 06:13 31.73696 118.85622 57 ft 17 kts 240°
2026-05-06 06:14 31.73630 118.85490 57 ft 21 kts 239°
2026-05-06 06:14 31.73545 118.85333 55 ft 25 kts 237°
2026-05-06 06:14 31.73445 118.85151 55 ft 28 kts 237°
2026-05-06 06:14 31.73334 118.84945 56 ft 31 kts 238°
2026-05-06 06:15 31.73318 118.84795 52 ft 14 kts 326°
2026-05-06 06:15 31.73415 118.84729 55 ft 18 kts
2026-05-06 06:15 31.73504 118.84860 55 ft 39 kts 57°
2026-05-06 06:15 31.73748 118.85317 56 ft 90 kts 58°
2026-05-06 06:16 31.74147 118.86065 56 ft 129 kts 57°
2026-05-06 06:16 31.74683 118.87071 92 ft 158 kts 58°
2026-05-06 06:16 31.75279 118.88197 382 ft 163 kts 60°
2026-05-06 06:16 31.75875 118.89353 712 ft 167 kts 63°
2026-05-06 06:17 31.76507 118.90496 898 ft 173 kts 59°
2026-05-06 06:17 31.77182 118.91743 1077 ft 189 kts 62°
2026-05-06 06:17 31.77898 118.93068 1402 ft 200 kts 60°
2026-05-06 06:17 31.78689 118.94525 1616 ft 222 kts 62°
2026-05-06 06:18 31.79526 118.96081 2005 ft 228 kts 60°
2026-05-06 06:18 31.80398 118.97706 2440 ft 238 kts 60°
2026-05-06 06:18 31.81261 118.99358 2960 ft 239 kts 61°
2026-05-06 06:18 31.82133 119.01008 3445 ft 242 kts 60°
2026-05-06 06:19 31.83058 119.02715 3881 ft 245 kts 60°
2026-05-06 06:19 31.83955 119.04388 4318 ft 246 kts 60°
2026-05-06 06:19 31.84867 119.06091 4831 ft 246 kts 60°
2026-05-06 06:19 31.85772 119.07809 5253 ft 249 kts 61°
2026-05-06 06:20 31.86709 119.09572 5510 ft 260 kts 59°
2026-05-06 06:20 31.87970 119.11118 5847 ft 267 kts 29°
2026-05-06 06:20 31.89764 119.11621 6207 ft 270 kts 354°
2026-05-06 06:20 31.91513 119.10940 6623 ft 265 kts 322°
2026-05-06 06:21 31.92732 119.09312 6835 ft 269 kts 295°
2026-05-06 06:21 31.93613 119.07420 6909 ft 260 kts 294°
2026-05-06 06:21 31.94030 119.05404 6937 ft 251 kts 261°
2026-05-06 06:21 31.93556 119.03449 6948 ft 249 kts 245°
2026-05-06 06:22 31.92846 119.01587 6937 ft 249 kts 242°
2026-05-06 06:22 31.92016 118.99749 6943 ft 265 kts 238°
2026-05-06 06:22 31.91062 118.97847 7075 ft 270 kts 237°
2026-05-06 06:22 31.90071 118.95980 7696 ft 270 kts 236°
2026-05-06 06:23 31.89062 118.94118 8235 ft 270 kts 237°
2026-05-06 06:23 31.88048 118.92244 8667 ft 273 kts 237°
2026-05-06 06:23 31.87022 118.90359 9106 ft 274 kts 237°
2026-05-06 06:23 31.85998 118.88447 9414 ft 277 kts 241°
2026-05-06 06:24 31.85498 118.86282 9724 ft 280 kts 272°
2026-05-06 06:24 31.86079 118.84115 9874 ft 293 kts 301°
2026-05-06 06:24 31.87604 118.82453 9935 ft 312 kts 329°
2026-05-06 06:24 31.89745 118.81741 9985 ft 330 kts 354°
2026-05-06 06:25 31.92076 118.81768 10106 ft 338 kts 358°
2026-05-06 06:25 31.94422 118.81660 10363 ft 338 kts 352°
2026-05-06 06:25 31.99066 118.80764 10917 ft 338 kts 344°
2026-05-06 06:26 32.01353 118.80101 11187 ft 339 kts 342°
2026-05-06 06:26 32.03643 118.79367 11428 ft 341 kts 341°
2026-05-06 06:26 32.05934 118.78609 11697 ft 343 kts 341°
2026-05-06 06:26 32.08213 118.77838 11958 ft 344 kts 341°
2026-05-06 06:27 32.10521 118.77048 12319 ft 345 kts 341°
2026-05-06 06:27 32.12835 118.76254 12736 ft 348 kts 341°
2026-05-06 06:27 32.15170 118.75450 13149 ft 350 kts 341°
2026-05-06 06:27 32.17513 118.74634 13555 ft 353 kts 341°
2026-05-06 06:28 32.19879 118.73825 13902 ft 355 kts 341°
2026-05-06 06:28 32.22265 118.73037 14235 ft 357 kts 342°
2026-05-06 06:28 32.24664 118.72238 14572 ft 358 kts 341°
2026-05-06 06:28 32.27028 118.71428 14907 ft 360 kts 341°
2026-05-06 06:29 32.29473 118.70608 15215 ft 361 kts 341°
2026-05-06 06:29 32.31895 118.69790 15543 ft 362 kts 341°
2026-05-06 06:29 32.34302 118.68996 15851 ft 364 kts 341°
2026-05-06 06:29 32.36746 118.68185 16165 ft 365 kts 341°
2026-05-06 06:30 32.39188 118.67350 16530 ft 363 kts 341°
2026-05-06 06:30 32.41585 118.66537 17138 ft 357 kts 341°
2026-05-06 06:30 32.43979 118.65731 17436 ft 359 kts 341°
2026-05-06 06:30 32.46387 118.64927 17745 ft 361 kts 341°
2026-05-06 06:31 32.48816 118.64119 18045 ft 363 kts 340°
2026-05-06 06:31 32.51239 118.63311 18325 ft 364 kts 340°
2026-05-06 06:31 32.53691 118.62479 18606 ft 365 kts 340°
2026-05-06 06:31 32.56130 118.61639 18870 ft 366 kts 340°
2026-05-06 06:32 32.58588 118.60789 19136 ft 368 kts 340°
2026-05-06 06:32 32.61052 118.59945 19406 ft 369 kts 340°
2026-05-06 06:32 32.63531 118.59120 19681 ft 370 kts 340°
2026-05-06 06:32 32.65972 118.58291 19947 ft 371 kts 340°
2026-05-06 06:33 32.68501 118.57427 20210 ft 372 kts 339°
2026-05-06 06:33 32.70953 118.56563 20470 ft 373 kts 339°
2026-05-06 06:33 32.73454 118.55674 20736 ft 374 kts 339°
2026-05-06 06:33 32.75956 118.54784 20983 ft 376 kts 339°
2026-05-06 06:34 32.78466 118.53890 21231 ft 377 kts 339°
2026-05-06 06:34 32.80988 118.52993 21477 ft 379 kts 338°
2026-05-06 06:34 32.83515 118.52071 21725 ft 380 kts 338°
2026-05-06 06:34 32.86051 118.51137 21977 ft 381 kts 338°
2026-05-06 06:35 32.88597 118.50228 22212 ft 383 kts 338°
2026-05-06 06:35 32.91154 118.49316 22459 ft 384 kts 338°
2026-05-06 06:35 32.93710 118.48383 22686 ft 385 kts 338°
2026-05-06 06:35 32.96279 118.47445 22880 ft 386 kts 338°
2026-05-06 06:36 32.98827 118.46532 23070 ft 387 kts 338°
2026-05-06 06:36 33.01443 118.45594 23244 ft 388 kts 338°
2026-05-06 06:36 33.03993 118.44673 23412 ft 389 kts 338°
2026-05-06 06:36 33.06588 118.43733 23562 ft 390 kts 338°
2026-05-06 06:37 33.09186 118.42791 23719 ft 390 kts 338°
2026-05-06 06:37 33.11788 118.41850 23863 ft 391 kts 338°
2026-05-06 06:37 33.14388 118.40905 24011 ft 391 kts 338°
2026-05-06 06:37 33.16993 118.39960 24157 ft 392 kts 338°
2026-05-06 06:38 33.19606 118.39009 24299 ft 393 kts 338°
2026-05-06 06:38 33.22223 118.38076 24473 ft 392 kts 338°
2026-05-06 06:38 33.24838 118.37156 24681 ft 391 kts 338°
2026-05-06 06:38 33.27439 118.36222 24856 ft 390 kts 338°
2026-05-06 06:39 33.30044 118.35286 25030 ft 390 kts 338°
2026-05-06 06:39 33.32644 118.34350 25207 ft 390 kts 338°
2026-05-06 06:39 33.35241 118.33416 25367 ft 389 kts 338°
2026-05-06 06:39 33.37796 118.32497 25419 ft 386 kts 338°
2026-05-06 06:40 33.40354 118.31579 25437 ft 383 kts 338°
2026-05-06 06:40 33.42907 118.30665 25437 ft 383 kts 338°
2026-05-06 06:40 33.45459 118.29747 25437 ft 384 kts 338°
2026-05-06 06:40 33.48019 118.28828 25440 ft 384 kts 338°
2026-05-06 06:41 33.50585 118.27904 25441 ft 385 kts 338°
2026-05-06 06:41 33.53156 118.26978 25440 ft 386 kts 338°
2026-05-06 06:41 33.55732 118.26049 25442 ft 386 kts 338°
2026-05-06 06:41 33.58303 118.25116 25455 ft 387 kts 337°
2026-05-06 06:42 33.60878 118.24172 25449 ft 387 kts 337°
2026-05-06 06:42 33.63462 118.23234 25441 ft 388 kts 338°
2026-05-06 06:42 33.66045 118.22298 25439 ft 388 kts 338°
2026-05-06 06:42 33.68596 118.21377 25438 ft 388 kts 338°
2026-05-06 06:43 33.71180 118.20439 25439 ft 387 kts 337°
2026-05-06 06:43 33.73758 118.19479 25436 ft 387 kts 337°
2026-05-06 06:43 33.76341 118.18536 25433 ft 388 kts 337°
2026-05-06 06:43 33.78920 118.17599 25433 ft 388 kts 338°
2026-05-06 06:44 33.81506 118.16661 25431 ft 388 kts 338°
2026-05-06 06:44 33.84097 118.15725 25436 ft 389 kts 338°
2026-05-06 06:44 33.86705 118.14784 25433 ft 390 kts 338°
2026-05-06 06:44 33.89300 118.13846 25433 ft 390 kts 337°
2026-05-06 06:45 33.91860 118.12898 25433 ft 390 kts 337°
2026-05-06 06:45 33.94456 118.11951 25430 ft 390 kts 337°
2026-05-06 06:45 33.97050 118.11008 25429 ft 390 kts 338°
2026-05-06 06:45 33.99649 118.10068 25428 ft 389 kts 337°
2026-05-06 06:46 34.02242 118.09127 25428 ft 390 kts 338°
2026-05-06 06:46 34.04841 118.08186 25427 ft 390 kts 337°
2026-05-06 06:46 34.07438 118.07243 25431 ft 390 kts 337°
2026-05-06 06:46 34.10045 118.06297 25440 ft 391 kts 337°
2026-05-06 06:47 34.12652 118.05357 25431 ft 392 kts 337°
2026-05-06 06:47 34.15255 118.04422 25425 ft 392 kts 337°
2026-05-06 06:47 34.17871 118.03481 25423 ft 391 kts 337°
2026-05-06 06:47 34.20477 118.02519 25421 ft 391 kts 337°
2026-05-06 06:48 34.23105 118.01559 25422 ft 397 kts 337°
2026-05-06 06:48 34.25765 118.00589 25426 ft 403 kts 337°
2026-05-06 06:48 34.28473 117.99600 25429 ft 408 kts 337°
2026-05-06 06:48 34.31176 117.98611 25432 ft 413 kts 338°
2026-05-06 06:49 34.33953 117.97620 25442 ft 419 kts 338°
2026-05-06 06:49 34.36768 117.96628 25433 ft 423 kts 338°
2026-05-06 06:49 34.39593 117.95606 25426 ft 425 kts 338°
2026-05-06 06:49 34.42437 117.94600 25422 ft 426 kts 338°
2026-05-06 06:50 34.45279 117.93596 25414 ft 425 kts 338°
2026-05-06 06:50 34.48117 117.92566 25416 ft 425 kts 338°
2026-05-06 06:50 34.50949 117.91534 25415 ft 425 kts 338°
2026-05-06 06:50 34.53792 117.90528 25412 ft 426 kts 338°
2026-05-06 06:51 34.55683 117.89861 25406 ft 425 kts 338°
2026-05-06 06:51 34.58517 117.88833 25419 ft 426 kts 337°
2026-05-06 06:51 34.61362 117.87797 25412 ft 427 kts 337°
2026-05-06 06:51 34.64203 117.86762 25405 ft 427 kts 338°
2026-05-06 06:52 34.67059 117.85754 25403 ft 426 kts 338°
2026-05-06 06:52 34.69893 117.84739 25403 ft 425 kts 338°
2026-05-06 06:52 34.72733 117.83709 25403 ft 425 kts 338°
2026-05-06 06:52 34.75566 117.82674 25403 ft 426 kts 337°
2026-05-06 06:53 34.78410 117.81637 25408 ft 426 kts 338°
2026-05-06 06:53 34.81226 117.80639 25407 ft 427 kts 338°
2026-05-06 06:53 34.84075 117.79611 25421 ft 427 kts 337°
2026-05-06 06:53 34.86918 117.78585 25410 ft 427 kts 337°
2026-05-06 06:54 34.89787 117.77553 25403 ft 428 kts 337°
2026-05-06 06:54 34.92635 117.76518 25393 ft 428 kts 337°
2026-05-06 06:54 34.95485 117.75449 25403 ft 428 kts 337°
2026-05-06 06:54 34.98339 117.74400 25401 ft 429 kts 337°
2026-05-06 06:55 35.01199 117.73358 25402 ft 429 kts 337°
2026-05-06 06:55 35.04064 117.72316 25395 ft 430 kts 337°
2026-05-06 06:55 35.06935 117.71275 25392 ft 430 kts 337°
2026-05-06 06:55 35.09799 117.70234 25398 ft 430 kts 337°
2026-05-06 06:56 35.12663 117.69169 25480 ft 431 kts 336°
2026-05-06 06:56 35.15532 117.68104 25638 ft 431 kts 337°
2026-05-06 06:56 35.18366 117.67079 25818 ft 430 kts 337°
2026-05-06 06:56 35.21231 117.66014 25959 ft 431 kts 336°
2026-05-06 06:57 35.24105 117.64938 26098 ft 431 kts 336°
2026-05-06 06:57 35.26977 117.63891 26317 ft 429 kts 337°
2026-05-06 06:57 35.29829 117.62851 26490 ft 428 kts 336°
2026-05-06 06:57 35.32681 117.61783 26646 ft 428 kts 336°
2026-05-06 06:58 35.35535 117.60718 26830 ft 428 kts 336°
2026-05-06 06:58 35.38393 117.59661 27003 ft 428 kts 336°
2026-05-06 06:58 35.41247 117.58607 27143 ft 428 kts 336°
2026-05-06 06:58 35.44096 117.57552 27305 ft 427 kts 336°
2026-05-06 06:59 35.46940 117.56500 27360 ft 424 kts 336°
2026-05-06 06:59 35.49754 117.55465 27373 ft 421 kts 336°
2026-05-06 06:59 35.52555 117.54435 27370 ft 420 kts 336°
2026-05-06 06:59 35.55360 117.53415 27360 ft 421 kts 336°
2026-05-06 07:00 35.58176 117.52384 27377 ft 421 kts 336°
2026-05-06 07:00 35.60947 117.51362 27384 ft 422 kts 336°
2026-05-06 07:00 35.63763 117.50314 27384 ft 422 kts 336°
2026-05-06 07:00 35.66570 117.49251 27386 ft 423 kts 336°
2026-05-06 07:01 35.69398 117.48198 27390 ft 423 kts 336°
2026-05-06 07:01 35.72220 117.47149 27388 ft 424 kts 336°
2026-05-06 07:01 35.75050 117.46109 27378 ft 424 kts 336°
2026-05-06 07:01 35.77864 117.45043 27375 ft 422 kts 335°
2026-05-06 07:02 35.80670 117.43970 27376 ft 422 kts 335°
2026-05-06 07:02 35.83483 117.42923 27392 ft 423 kts 335°
2026-05-06 07:02 35.86302 117.41873 27378 ft 423 kts 335°
2026-05-06 07:02 35.89120 117.40808 27373 ft 423 kts 335°
2026-05-06 07:03 35.91928 117.39743 27372 ft 423 kts 335°
2026-05-06 07:03 35.94747 117.38691 27370 ft 423 kts 336°
2026-05-06 07:03 35.97570 117.37651 27370 ft 423 kts 335°
2026-05-06 07:03 36.00357 117.36604 27372 ft 424 kts 336°
2026-05-06 07:04 36.03184 117.35572 27380 ft 424 kts 336°
2026-05-06 07:04 36.06018 117.34539 27381 ft 424 kts 335°
2026-05-06 07:04 36.08850 117.33491 27348 ft 425 kts 335°
2026-05-06 07:04 36.11679 117.32432 27354 ft 425 kts 335°
2026-05-06 07:05 36.14505 117.31371 27354 ft 424 kts 335°
2026-05-06 07:05 36.17326 117.30310 27365 ft 424 kts 335°
2026-05-06 07:05 36.20159 117.29276 27367 ft 425 kts 336°
2026-05-06 07:05 36.22978 117.28242 27362 ft 425 kts 335°
2026-05-06 07:06 36.25811 117.27184 27364 ft 425 kts 335°
2026-05-06 07:06 36.28595 117.26138 27367 ft 425 kts 335°
2026-05-06 07:06 36.31432 117.25072 27386 ft 425 kts 335°
2026-05-06 07:06 36.34263 117.24033 27368 ft 425 kts 335°
2026-05-06 07:07 36.37086 117.22989 27370 ft 424 kts 335°
2026-05-06 07:07 36.39930 117.21932 27311 ft 424 kts 335°
2026-05-06 07:07 36.42718 117.20779 27338 ft 420 kts 332°
2026-05-06 07:07 36.45433 117.19466 27359 ft 418 kts 329°
2026-05-06 07:08 36.48121 117.18069 27365 ft 418 kts 328°
2026-05-06 07:08 36.50796 117.16648 27413 ft 418 kts 328°
2026-05-06 07:08 36.53461 117.15220 27384 ft 416 kts 328°
2026-05-06 07:08 36.56122 117.13795 27389 ft 415 kts 328°
2026-05-06 07:09 36.58759 117.12399 27369 ft 411 kts 328°
2026-05-06 07:09 36.61400 117.11023 27353 ft 411 kts 329°
2026-05-06 07:09 36.64041 117.09660 27346 ft 411 kts 329°
2026-05-06 07:09 36.66683 117.08273 27344 ft 411 kts 328°
2026-05-06 07:10 36.69283 117.06906 27343 ft 411 kts 329°
2026-05-06 07:10 36.71937 117.05534 27340 ft 411 kts 329°
2026-05-06 07:10 36.74570 117.04150 27340 ft 411 kts 328°
2026-05-06 07:10 36.77202 117.02757 27341 ft 411 kts 329°
2026-05-06 07:11 36.79850 117.01385 27342 ft 411 kts 329°
2026-05-06 07:11 36.82481 117.00003 27355 ft 408 kts 328°
2026-05-06 07:11 36.85093 116.98620 27342 ft 407 kts 328°
2026-05-06 07:11 36.87701 116.97235 27338 ft 407 kts 328°
2026-05-06 07:12 36.90311 116.95847 27336 ft 408 kts 328°
2026-05-06 07:12 36.92928 116.94471 27337 ft 409 kts 329°
2026-05-06 07:12 36.95551 116.93111 27338 ft 408 kts 328°
2026-05-06 07:12 36.98169 116.91726 27338 ft 408 kts 328°
2026-05-06 07:13 37.00787 116.90335 27335 ft 408 kts 328°
2026-05-06 07:13 37.03396 116.88945 27339 ft 408 kts 328°
2026-05-06 07:13 37.06019 116.87580 27339 ft 408 kts 328°
2026-05-06 07:13 37.08639 116.86210 27358 ft 408 kts 328°
2026-05-06 07:14 37.11219 116.84856 27352 ft 406 kts 328°
2026-05-06 07:14 37.13828 116.83487 27349 ft 405 kts 328°
2026-05-06 07:14 37.16424 116.82126 27348 ft 405 kts 328°
2026-05-06 07:14 37.19022 116.80749 27347 ft 405 kts 327°
2026-05-06 07:15 37.21629 116.79398 27352 ft 408 kts 330°
2026-05-06 07:15 37.24312 116.78223 27352 ft 411 kts 333°
2026-05-06 07:15 37.27054 116.77163 27355 ft 413 kts 334°
2026-05-06 07:15 37.29808 116.76151 27355 ft 413 kts 334°
2026-05-06 07:16 37.32577 116.75153 27374 ft 411 kts 334°
2026-05-06 07:16 37.35317 116.74142 27369 ft 411 kts 334°
2026-05-06 07:16 37.38057 116.73122 27364 ft 411 kts 334°
2026-05-06 07:16 37.40797 116.72096 27368 ft 411 kts 334°
2026-05-06 07:17 37.43543 116.71063 27362 ft 410 kts 334°
2026-05-06 07:17 37.46236 116.70016 27364 ft 410 kts 333°
2026-05-06 07:17 37.49004 116.68955 27366 ft 411 kts 334°
2026-05-06 07:17 37.51717 116.67924 27366 ft 411 kts 334°
2026-05-06 07:18 37.54453 116.66889 27386 ft 411 kts 334°
2026-05-06 07:18 37.57184 116.65854 27377 ft 409 kts 334°
2026-05-06 07:18 37.59902 116.64819 27375 ft 408 kts 334°
2026-05-06 07:18 37.62622 116.63782 27373 ft 408 kts 334°
2026-05-06 07:19 37.65351 116.62737 27370 ft 408 kts 334°
2026-05-06 07:19 37.68062 116.61673 27376 ft 408 kts 334°
2026-05-06 07:19 37.70746 116.60638 27376 ft 409 kts 334°
2026-05-06 07:19 37.73476 116.59587 27378 ft 409 kts 334°
2026-05-06 07:20 37.76196 116.58545 27381 ft 409 kts 334°
2026-05-06 07:20 37.78919 116.57500 27401 ft 409 kts 334°
2026-05-06 07:20 37.81634 116.56466 27402 ft 407 kts 335°
2026-05-06 07:20 37.84347 116.55450 27389 ft 407 kts 335°
2026-05-06 07:21 37.87076 116.54434 27385 ft 408 kts 335°
2026-05-06 07:21 37.89803 116.53412 27381 ft 408 kts 334°
2026-05-06 07:21 37.92521 116.52359 27380 ft 408 kts 334°
2026-05-06 07:21 37.95219 116.51273 27381 ft 405 kts 331°
2026-05-06 07:22 37.97737 116.49872 27386 ft 396 kts 323°
2026-05-06 07:22 38.00091 116.48103 27388 ft 391 kts 319°
2026-05-06 07:22 38.02322 116.46155 27389 ft 389 kts 316°
2026-05-06 07:22 38.04507 116.44130 27391 ft 388 kts 316°
2026-05-06 07:23 38.06670 116.42078 27391 ft 388 kts 315°
2026-05-06 07:23 38.08832 116.40021 27393 ft 388 kts 316°
2026-05-06 07:23 38.11004 116.37977 27395 ft 388 kts 316°
2026-05-06 07:23 38.13177 116.35947 27394 ft 389 kts 316°
2026-05-06 07:24 38.15375 116.33938 27394 ft 389 kts 316°
2026-05-06 07:24 38.17577 116.31934 27395 ft 389 kts 316°
2026-05-06 07:24 38.19758 116.29915 27399 ft 389 kts 316°
2026-05-06 07:24 38.21952 116.27900 27398 ft 391 kts 319°
2026-05-06 07:25 38.24494 116.26495 27411 ft 412 kts 340°
2026-05-06 07:25 38.27404 116.26180 27418 ft 424 kts 349°
2026-05-06 07:25 38.30373 116.26224 27429 ft 432 kts 356°
2026-05-06 07:25 38.33373 116.26784 27420 ft 440 kts
2026-05-06 07:26 38.36368 116.27715 27414 ft 444 kts
2026-05-06 07:26 38.39345 116.28781 27411 ft 445 kts
2026-05-06 07:26 38.42322 116.29894 27411 ft 446 kts
2026-05-06 07:26 38.45301 116.31013 27409 ft 446 kts
2026-05-06 07:27 38.48276 116.32100 27434 ft 445 kts
2026-05-06 07:27 38.51227 116.33136 27420 ft 445 kts
2026-05-06 07:27 38.54216 116.34170 27413 ft 445 kts
2026-05-06 07:27 38.57206 116.35196 27411 ft 445 kts
2026-05-06 07:28 38.60191 116.36218 27416 ft 444 kts
2026-05-06 07:28 38.63177 116.37221 27417 ft 443 kts
2026-05-06 07:28 38.69191 116.38603 27424 ft 437 kts 359°
2026-05-06 07:29 38.72215 116.39050 27420 ft 437 kts 358°
2026-05-06 07:29 38.75230 116.39453 27367 ft 433 kts 357°
2026-05-06 07:29 38.78241 116.39854 26474 ft 436 kts 358°
2026-05-06 07:29 38.81264 116.40266 25620 ft 438 kts 359°
2026-05-06 07:30 38.84309 116.40702 24758 ft 440 kts 360°
2026-05-06 07:30 38.86311 116.40996 24180 ft 442 kts
2026-05-06 07:30 38.90427 116.41636 22882 ft 447 kts
2026-05-06 07:30 38.93496 116.42125 22088 ft 443 kts
2026-05-06 07:31 38.96550 116.42605 21350 ft 438 kts
2026-05-06 07:31 38.99525 116.43060 20638 ft 433 kts
2026-05-06 07:31 39.02545 116.43508 19909 ft 429 kts
2026-05-06 07:31 39.05453 116.43985 19186 ft 428 kts
2026-05-06 07:32 39.08190 116.45237 18100 ft 403 kts 26°
2026-05-06 07:32 39.10397 116.47449 16254 ft 385 kts 38°
2026-05-06 07:32 39.12525 116.49162 14725 ft 353 kts 14°
2026-05-06 07:32 39.14853 116.49917 13575 ft 346 kts
2026-05-06 07:33 39.17183 116.50537 13610 ft 342 kts
2026-05-06 07:33 39.19515 116.51189 13623 ft 343 kts
2026-05-06 07:33 39.21846 116.51878 13625 ft 343 kts
2026-05-06 07:33 39.24169 116.52609 13626 ft 343 kts
2026-05-06 07:34 39.26500 116.53303 13633 ft 342 kts
2026-05-06 07:34 39.28802 116.52981 13642 ft 329 kts 334°
2026-05-06 07:34 39.30869 116.51759 13645 ft 326 kts 329°
2026-05-06 07:34 39.32913 116.50499 13642 ft 327 kts 329°
2026-05-06 07:35 39.35002 116.49357 13638 ft 329 kts 335°
2026-05-06 07:35 39.37181 116.48501 13633 ft 331 kts 339°
2026-05-06 07:35 39.39426 116.47747 13611 ft 332 kts 340°
2026-05-06 07:35 39.41692 116.47025 13115 ft 335 kts 341°
2026-05-06 07:36 39.43918 116.46365 12482 ft 333 kts 342°
2026-05-06 07:36 39.46180 116.45723 11856 ft 332 kts 346°
2026-05-06 07:36 39.48491 116.45852 11271 ft 342 kts 11°
2026-05-06 07:36 39.50597 116.47346 10692 ft 351 kts 33°
2026-05-06 07:37 39.52437 116.49423 10120 ft 348 kts 36°
2026-05-06 07:37 39.54230 116.51508 9519 ft 344 kts 36°
2026-05-06 07:37 39.55998 116.53564 8907 ft 339 kts 36°
2026-05-06 07:37 39.57755 116.55568 8295 ft 333 kts 36°
2026-05-06 07:38 39.59463 116.57460 7661 ft 304 kts 36°
2026-05-06 07:38 39.60928 116.59058 7086 ft 266 kts 35°
2026-05-06 07:38 39.62318 116.60529 6472 ft 260 kts 35°
2026-05-06 07:38 39.63251 116.61501 6081 ft 258 kts 35°
2026-05-06 07:39 39.64628 116.62947 5409 ft 251 kts 37°
2026-05-06 07:39 39.65938 116.64343 5085 ft 234 kts 37°
2026-05-06 07:39 39.67210 116.65555 4955 ft 221 kts 22°
2026-05-06 07:39 39.68600 116.65782 4948 ft 212 kts 355°
2026-05-06 07:40 39.70050 116.65603 4950 ft 214 kts 356°
2026-05-06 07:40 39.71532 116.65412 4928 ft 213 kts 355°
2026-05-06 07:40 39.72996 116.65186 4938 ft 212 kts 354°
2026-05-06 07:40 39.74462 116.64949 4934 ft 212 kts 354°
2026-05-06 07:41 39.75904 116.64662 4927 ft 212 kts 347°
2026-05-06 07:41 39.77282 116.64032 4940 ft 213 kts 342°
2026-05-06 07:41 39.78701 116.63510 4912 ft 213 kts 348°
2026-05-06 07:41 39.80122 116.63010 4796 ft 215 kts 346°
2026-05-06 07:42 39.81562 116.62494 4580 ft 213 kts 347°
2026-05-06 07:42 39.82966 116.61998 4384 ft 210 kts 347°
2026-05-06 07:42 39.84350 116.61508 4206 ft 201 kts 348°
2026-05-06 07:42 39.85635 116.61069 4113 ft 183 kts 347°
2026-05-06 07:43 39.86814 116.60705 3953 ft 176 kts 350°
2026-05-06 07:43 39.88023 116.60416 3767 ft 180 kts 352°
2026-05-06 07:43 39.89252 116.60165 3584 ft 179 kts 354°
2026-05-06 07:43 39.90487 116.59969 3386 ft 179 kts 356°
2026-05-06 07:44 39.91724 116.59804 3151 ft 179 kts 357°
2026-05-06 07:44 39.92897 116.59635 2927 ft 166 kts 356°
2026-05-06 07:44 39.94005 116.59476 2727 ft 155 kts 358°
2026-05-06 07:44 39.95045 116.59330 2547 ft 145 kts 358°
2026-05-06 07:45 39.96009 116.59190 2347 ft 136 kts 358°
2026-05-06 07:45 39.96946 116.59048 2161 ft 136 kts 357°
2026-05-06 07:45 39.97873 116.58895 1995 ft 138 kts 357°
2026-05-06 07:45 39.98834 116.58748 1819 ft 139 kts 358°
2026-05-06 07:46 39.99743 116.58612 1643 ft 138 kts 357°
2026-05-06 07:46 40.00703 116.58461 1440 ft 140 kts 358°
2026-05-06 07:46 40.01664 116.58310 1239 ft 136 kts 358°
2026-05-06 07:46 40.02493 116.58178 1094 ft 133 kts 356°
2026-05-06 07:47 40.03412 116.58035 948 ft 135 kts 360°
2026-05-06 07:47 40.04365 116.57901 771 ft 139 kts 357°
2026-05-06 07:47 40.05290 116.57764 631 ft 139 kts 354°
2026-05-06 07:47 40.06210 116.57619 394 ft 136 kts 354°
2026-05-06 07:48 40.07122 116.57462 213 ft 131 kts 355°
2026-05-06 07:48 40.07979 116.57322 126 ft 114 kts 354°
2026-05-06 07:48 40.08680 116.57221 120 ft 91 kts 352°
2026-05-06 07:48 40.09188 116.57131 122 ft 72 kts 353°
2026-05-06 07:49 40.09587 116.57065 123 ft 61 kts 353°
2026-05-06 07:49 40.09947 116.57006 121 ft 35 kts 353°
2026-05-06 07:49 40.10083 116.56985 121 ft 16 kts 353°
2026-05-06 07:49 40.10183 116.57000 120 ft 14 kts 40°
2026-05-06 07:50 40.10197 116.57110 123 ft 11 kts 102°
2026-05-06 07:50 40.10160 116.57182 120 ft 9 kts 142°
2026-05-06 07:50 40.10107 116.57214 122 ft 8 kts 168°
2026-05-06 07:50 40.10059 116.57224 124 ft 6 kts 171°
2026-05-06 07:51 40.10020 116.57231 122 ft 5 kts 172°
2026-05-06 07:51 40.09989 116.57236 122 ft 5 kts 174°
2026-05-06 07:51 40.09952 116.57241 121 ft 6 kts 174°
2026-05-06 07:51 40.09903 116.57247 122 ft 8 kts 174°
2026-05-06 07:52 40.09835 116.57256 123 ft 11 kts 174°
2026-05-06 07:52 40.09765 116.57265 122 ft 14 kts 174°
2026-05-06 07:52 40.09663 116.57287 123 ft 18 kts 171°
2026-05-06 07:52 40.09529 116.57317 124 ft 22 kts 170°
2026-05-06 07:53 40.09366 116.57347 121 ft 26 kts 172°
2026-05-06 07:53 40.09174 116.57375 120 ft 30 kts 174°
2026-05-06 07:53 40.08972 116.57399 123 ft 25 kts 174°
2026-05-06 07:53 40.08849 116.57415 120 ft 0 kts 174°
2026-05-06 07:55 40.08831 116.57417 122 ft 6 kts 174°
2026-05-06 07:55 40.08773 116.57424 121 ft 11 kts 174°
2026-05-06 07:55 40.08685 116.57435 123 ft 15 kts 174°
2026-05-06 07:55 40.08572 116.57452 121 ft 18 kts 173°
2026-05-06 07:56 40.08463 116.57469 123 ft 20 kts 173°